User: anonymous   Login
Location: Unspecified
(0.0000°N, 0.0000°E)
Time: 00:14:18
(UTC+00:00)
Language:

UOSAT-12 - Orbit

View from above orbital plane
View from above orbital plane
View from above satellite
View from above satellite

Ground track
Ground track

The orbit data is extracted from the following two-line orbital elements,

1 25693U 99021A   17328.52050509 -.00000052 +00000-0 +12455-4 0  9992
2 25693 064.5563 351.5147 0045568 290.9292 068.6939 14.80770578003598
Epoch (UTC): 24 November 2017 12:29:31
Eccentricity: 0.0045568
inclination: 64.5563°
perigee height: 595 km
apogee height: 659 km
right ascension of ascending node: 351.5147°
argument of perigee: 290.9292°
revolutions per day: 14.80770578
mean anomaly at epoch: 68.6939°
orbit number at epoch: 359

The dashed part of the orbit path shows where the satellite is in the earth's shadow,  

DLR